Flag Weather past 2 weeks in Barranquilla, Colombia

Now
77 °F

Fog.


Feels Like: 78 °F
Forecast: 79 / 89 °F
Wind: No wind

Location: Barranquilla / Ernestocortissoz

Current Time: Nov 21, 2014 at 7:25:00 AM

Latest Report: Nov 21, 2014 at 7:00 AM


Visibility: 2 mi

Pressure: 29.88 "Hg

Humidity: 100%

Dew point: 77 °F

Location of BarranquillaLocation

Historic Weather in Barranquilla — Graph

°F

Barranquilla temperature yesterday

Maximum temperature yesterday: 90 °F (at 2:00 PM)
Minimum temperature yesterday: 77 °F (at 7:00 AM)
Average temperature yesterday: 82 °F

Past Weeks' High & Low Weather Summary

 TemperatureHumidityPressure
High93 °F (Nov 8, 1:00 PM)100% (Nov 6, 6:00 AM)29.95 "Hg (Nov 6, 6:00 AM)
Low73 °F (Nov 14, 3:00 AM)56% (Nov 8, 1:00 PM)29.72 "Hg (Nov 8, 4:00 PM)
Average82 °F89%29.84 "Hg
* Reported Nov 6 6:00 AM — Nov 21 6:00 AM, Barranquilla, Weather by CustomWeather, © 2014

Note: Actual official high and low records may vary slightly from our data, if they occured in-between our weather recording intervals... More about our weather records

Advertising

Barranquilla weather history for previous 24 hours

 ConditionsComfort  
Time TempWeatherWind HumidityBarometerVisibility
6:00 AM
Nov 21
77 °FFog.7 mph100%29.85 "Hg2 mi
5:00 AM77 °FFog.9 mph100%29.83 "Hg2 mi
4:00 AM79 °FPassing clouds.3 mph94%29.91 "HgN/A
3:00 AM88 °FPassing clouds.25 mph59%29.90 "HgN/A
2:00 AM79 °FPassing clouds.5 mph94%29.83 "HgN/A
1:00 AM81 °FPassing clouds.5 mph89%29.83 "HgN/A
12:00 AM81 °FPassing clouds.5 mph89%29.86 "HgN/A
11:00 PM
Nov 20
81 °FPassing clouds.12 mph89%29.86 "HgN/A
10:00 PM79 °FPartly cloudy.5 mph94%29.87 "HgN/A
9:00 PM79 °FPartly cloudy.5 mph94%29.86 "HgN/A
8:00 PM81 °FPartly cloudy.7 mph89%29.85 "HgN/A
7:00 PM82 °FScattered showers. Passing clouds.7 mph84%29.82 "HgN/A
6:00 PM82 °FPassing clouds.10 mph89%29.79 "HgN/A
5:00 PM84 °FScattered clouds.9 mph84%29.77 "Hg4 mi
4:00 PM88 °FScattered clouds.9 mph75%29.77 "HgN/A
3:00 PM88 °FScattered clouds.5 mph75%29.77 "HgN/A
2:00 PM90 °FScattered clouds.5 mph71%29.79 "HgN/A
1:00 PM88 °FScattered clouds.9 mph75%29.82 "HgN/A
12:00 PM86 °FScattered clouds.7 mph79%29.87 "HgN/A
11:00 AM82 °FScattered clouds.6 mph84%29.90 "HgN/A
10:00 AM82 °FScattered clouds.5 mph84%29.91 "HgN/A
9:00 AM81 °FScattered clouds.6 mph89%29.90 "HgN/A
8:00 AM79 °FScattered clouds.5 mph89%29.88 "HgN/A
7:00 AM77 °FBroken clouds.7 mph94%29.86 "HgN/A
Weather by CustomWeather, © 2014

See weather overviewHow to use our weather pages